Regional Weather Roundup
Issued by NWS Cleveland, OH

Home | Current Version | Previous Version | Text Only | Print | Product List | Glossary On
Versions: 1 2 3 4 5 6 7 8 9 10 11 12 13 14 15 16 17 18 19 20 21 22 23 24 25 26 27 28 29 30 31 32 33 34 35 36 37 38 39 40 41 42 43 44 45 46 47 48 49 50
000
ASUS41 KCLE 310110
RWRCLE
OHIO REGIONAL WEATHER ROUNDUP
NATIONAL WEATHER SERVICE CLEVELAND, OH
900 PM EDT THU JUL 30 2015

NOTE: "FAIR" INDICATES FEW OR NO CLOUDS BELOW 12,000 FEET WITH NO
SIGNIFICANT WEATHER AND/OR OBSTRUCTIONS TO VISIBILITY.

OHZ001>008-015>018-024>027-034-035-043-044-310200-
   NORTHWEST OHIO

CITY           SKY/WX    TMP DP  RH WIND       PRES   REMARKS
DEFIANCE       CLEAR     79  55  43 W5        29.99F
FINDLAY        CLEAR     76  56  49 NW7       29.99R
TOLEDO EXPRESS CLEAR     76  58  53 W7        29.97S
TOLEDO EXEC    CLEAR     77  56  48 W9        29.97S
LIMA           CLEAR     73  56  54 NW6       30.01S
$$

OHZ009>014-019>023-028>033-038-089-310200-
   NORTHEAST OHIO

CITY           SKY/WX    TMP DP  RH WIND       PRES   REMARKS
CLE-HOPKINS    PTCLDY    76  57  51 W6        29.98R
CLE-LAKEFRONT  CLEAR     79  64  60 W13       29.93S
CUY CO. ARPT   CLEAR     79  63  57 W13G21    29.96S
LORAIN-ELYRIA  CLEAR     75  57  53 W6        29.96F
ASHTABULA      PTCLDY    74  57  55 W8        29.95S
AKRON-CANTON   PTCLDY    75  57  53 W7        29.98S
WOOSTER        CLEAR     69  60  73 W6        29.99S
MANSFIELD      CLEAR     73  58  59 W6        30.01R
YOUNGSTOWN     PTCLDY    74  58  57 NW7       29.97R
$$

OHZ042-051>053-060>062-070>072-077>081-310200-
  SOUTHWEST OHIO

CITY           SKY/WX    TMP DP  RH WIND       PRES   REMARKS
CINC-COVINGTON PTCLDY    78  59  50 NW6       30.04S
CINC-LUNKEN    CLEAR     80  58  46 NW5       30.03R
HAMILTON       CLEAR     75  61  61 NW5       30.03S
DAYTON         PTCLDY    75  59  57 NW7       30.04R
WRIGHT-PAT AFB CLEAR     77  58  51 W5        30.02S
DAYTON GENERAL CLEAR     78  58  49 NW3       30.03R
WILMINGTON     CLEAR     77  57  50 NW7       30.03R
$$

OHZ036-037-039>041-045>050-054>059-063>069-073>076-082>088-310200-
  CENTRAL AND SOUTHEAST OHIO

CITY           SKY/WX    TMP DP  RH WIND       PRES   REMARKS
COLUMBUS       PTCLDY    77  58  51 NW10      29.99S
OSU AIRPORT    CLEAR     74  60  61 W8        30.01R
BOLTON FIELD   CLEAR     75  59  57 W5        30.02R
RICKENBACK AFB CLEAR     76  59  55 W5        30.00S
NEWARK         CLEAR     74  59  59 W5        29.99S
MARION         CLEAR     76  57  51 W5        30.00S
LANCASTER      CLEAR     73  59  61 W5        30.01R
ZANESVILLE     CLEAR     76  56  49 W7        29.99S
NEW PHILLY     CLEAR     72  63  73 CALM      29.99R
$$



USA.gov is the U.S. government's official web portal to all federal, state and local government web resources and services.